BEL3159 EBBR-LIMC

Flight info

Callsign BEL3159
Flight time 1h 18m
Altitude 33000
Route ROUSY DCT GTQ DCT DEVDI DCT RIPUS DCT GERSA DCT SOSON DCT DEGAD Z424 BASGO/N0441F290 Z424 AKASU/N0374F190 Z424 RIXUV
Aircraft B739/M-SDE2E3FGHIRWXY/LB1

Departure

Time 2026-05-05 18:44
Airport Brussels Airport (EBBR)

Arrival

Time 2026-05-05 20:02
Airport Milan Malpensa International Airport (LIMC)
Time Latitude Longitude Altitude Speed Heading
2026-05-05 17:48 50.90502 4.48894 120 ft 0 kts 155°
2026-05-05 18:30 50.90522 4.48879 115 ft 4 kts 155°
2026-05-05 18:30 50.90546 4.48862 116 ft 3 kts 155°
2026-05-05 18:30 50.90565 4.48842 115 ft 4 kts 115°
2026-05-05 18:30 50.90566 4.48806 116 ft 4 kts 71°
2026-05-05 18:31 50.90561 4.48784 117 ft 1 kts 65°
2026-05-05 18:31 50.90560 4.48782 117 ft 0 kts 65°
2026-05-05 18:35 50.90561 4.48783 117 ft 1 kts 65°
2026-05-05 18:35 50.90569 4.48811 117 ft 5 kts 65°
2026-05-05 18:35 50.90588 4.48879 118 ft 9 kts 65°
2026-05-05 18:35 50.90618 4.48982 118 ft 12 kts 65°
2026-05-05 18:36 50.90654 4.49113 120 ft 9 kts 80°
2026-05-05 18:36 50.90642 4.49139 120 ft 3 kts 146°
2026-05-05 18:36 50.90614 4.49160 120 ft 5 kts 155°
2026-05-05 18:36 50.90581 4.49184 120 ft 6 kts 155°
2026-05-05 18:37 50.90529 4.49221 121 ft 11 kts 155°
2026-05-05 18:37 50.90440 4.49286 120 ft 16 kts 155°
2026-05-05 18:37 50.90346 4.49359 122 ft 15 kts 143°
2026-05-05 18:37 50.90247 4.49391 126 ft 16 kts 194°
2026-05-05 18:38 50.90143 4.49348 126 ft 15 kts 194°
2026-05-05 18:38 50.90035 4.49305 130 ft 17 kts 194°
2026-05-05 18:38 50.89920 4.49259 135 ft 17 kts 194°
2026-05-05 18:38 50.89811 4.49214 142 ft 16 kts 195°
2026-05-05 18:39 50.89706 4.49170 147 ft 15 kts 194°
2026-05-05 18:39 50.89611 4.49103 153 ft 15 kts 217°
2026-05-05 18:39 50.89507 4.49043 157 ft 17 kts 194°
2026-05-05 18:39 50.89389 4.48998 161 ft 18 kts 193°
2026-05-05 18:40 50.89292 4.49066 167 ft 7 kts 143°
2026-05-05 18:40 50.89290 4.49067 167 ft 0 kts 152°
2026-05-05 18:41 50.89287 4.49068 168 ft 1 kts 158°
2026-05-05 18:41 50.89282 4.49070 168 ft 1 kts 168°
2026-05-05 18:42 50.89268 4.49068 169 ft 3 kts 191°
2026-05-05 18:42 50.89245 4.49059 171 ft 4 kts 193°
2026-05-05 18:42 50.89210 4.49046 174 ft 8 kts 193°
2026-05-05 18:42 50.89150 4.49079 175 ft 11 kts 96°
2026-05-05 18:43 50.89179 4.49229 175 ft 18 kts 70°
2026-05-05 18:43 50.89230 4.49447 175 ft 29 kts 70°
2026-05-05 18:43 50.89392 4.50150 175 ft 105 kts 70°
2026-05-05 18:43 50.89721 4.51566 174 ft 166 kts 70°
2026-05-05 18:44 50.90159 4.53428 536 ft 190 kts 69°
2026-05-05 18:44 50.90625 4.55448 1283 ft 187 kts 60°
2026-05-05 18:44 50.91256 4.57141 2287 ft 180 kts 57°
2026-05-05 18:44 50.91916 4.58994 2532 ft 206 kts 59°
2026-05-05 18:45 50.92634 4.61055 2850 ft 222 kts 59°
2026-05-05 18:45 50.93414 4.63295 3134 ft 239 kts 60°
2026-05-05 18:45 50.94087 4.65779 3676 ft 250 kts 71°
2026-05-05 18:45 50.94584 4.68441 4389 ft 254 kts 72°
2026-05-05 18:46 50.95076 4.71144 5071 ft 259 kts 72°
2026-05-05 18:46 50.95580 4.73906 5769 ft 261 kts 75°
2026-05-05 18:46 50.95620 4.76821 6365 ft 271 kts 105°
2026-05-05 18:46 50.94741 4.79446 7084 ft 275 kts 130°
2026-05-05 18:47 50.93298 4.81476 7735 ft 279 kts 140°
2026-05-05 18:47 50.91794 4.83396 8391 ft 282 kts 139°
2026-05-05 18:47 50.90269 4.85377 9067 ft 285 kts 140°
2026-05-05 18:47 50.88707 4.87325 9713 ft 289 kts 148°
2026-05-05 18:48 50.86862 4.88657 10228 ft 296 kts 155°
2026-05-05 18:48 50.85064 4.90466 10291 ft 317 kts 139°
2026-05-05 18:48 50.83229 4.92576 10418 ft 338 kts 153°
2026-05-05 18:48 50.80917 4.93550 10535 ft 356 kts 180°
2026-05-05 18:49 50.78499 4.92656 10983 ft 363 kts 206°
2026-05-05 18:49 50.76276 4.90817 11688 ft 362 kts 200°
2026-05-05 18:49 50.73785 4.90185 12106 ft 366 kts 175°
2026-05-05 18:49 50.71276 4.90657 12964 ft 361 kts 173°
2026-05-05 18:50 50.68757 4.91074 13489 ft 366 kts 174°
2026-05-05 18:50 50.66253 4.91961 13851 ft 374 kts 154°
2026-05-05 18:50 50.64168 4.94372 14480 ft 373 kts 136°
2026-05-05 18:50 50.62352 4.97286 15046 ft 375 kts 136°
2026-05-05 18:51 50.60490 5.00222 15423 ft 381 kts 136°
2026-05-05 18:51 50.58599 5.03182 15892 ft 385 kts 136°
2026-05-05 18:51 50.56690 5.06155 16392 ft 387 kts 136°
2026-05-05 18:51 50.54763 5.09144 16872 ft 390 kts 136°
2026-05-05 18:52 50.52827 5.12161 17329 ft 394 kts 134°
2026-05-05 18:52 50.51175 5.15631 17722 ft 401 kts 120°
2026-05-05 18:52 50.50134 5.19710 18184 ft 406 kts 105°
2026-05-05 18:52 50.49716 5.24056 18644 ft 408 kts 98°
2026-05-05 18:53 50.49095 5.28393 19040 ft 408 kts 112°
2026-05-05 18:53 50.47794 5.32344 19453 ft 408 kts 127°
2026-05-05 18:53 50.45905 5.35646 19890 ft 407 kts 141°
2026-05-05 18:53 50.43549 5.38099 20311 ft 407 kts 155°
2026-05-05 18:54 50.40876 5.39553 20695 ft 409 kts 169°
2026-05-05 18:54 50.38061 5.40222 21115 ft 410 kts 169°
2026-05-05 18:54 50.35301 5.41479 21448 ft 414 kts 159°
2026-05-05 18:54 50.32629 5.43179 21884 ft 416 kts 155°
2026-05-05 18:55 50.30168 5.45609 22098 ft 423 kts 139°
2026-05-05 18:55 50.28089 5.48843 22633 ft 422 kts 133°
2026-05-05 18:55 50.26121 5.52261 23040 ft 424 kts 132°
2026-05-05 18:55 50.24121 5.55691 23333 ft 428 kts 134°
2026-05-05 18:56 50.22060 5.59058 23631 ft 431 kts 135°
2026-05-05 18:56 50.19943 5.62372 23997 ft 431 kts 136°
2026-05-05 18:56 50.17795 5.65642 24391 ft 431 kts 136°
2026-05-05 18:56 50.15638 5.68888 24726 ft 432 kts 136°
2026-05-05 18:57 50.13465 5.72149 25034 ft 434 kts 136°
2026-05-05 18:57 50.11288 5.75418 25338 ft 436 kts 136°
2026-05-05 18:57 50.09121 5.78660 25659 ft 437 kts 138°
2026-05-05 18:57 50.06654 5.81397 25812 ft 441 kts 155°
2026-05-05 18:58 50.03732 5.82821 26217 ft 439 kts 165°
2026-05-05 18:58 50.00802 5.84102 26648 ft 438 kts 162°
2026-05-05 18:58 49.97889 5.85586 26813 ft 442 kts 160°
2026-05-05 18:58 49.94968 5.87151 27006 ft 446 kts 160°
2026-05-05 18:59 49.92033 5.88733 27319 ft 447 kts 160°
2026-05-05 18:59 49.89091 5.90299 27643 ft 447 kts 160°
2026-05-05 18:59 49.86140 5.91847 27901 ft 449 kts 160°
2026-05-05 18:59 49.83173 5.93384 28214 ft 450 kts 160°
2026-05-05 19:00 49.80208 5.94908 28612 ft 448 kts 160°
2026-05-05 19:00 49.77250 5.96421 29058 ft 445 kts 160°
2026-05-05 19:00 49.74315 5.97920 29464 ft 444 kts 160°
2026-05-05 19:00 49.71381 5.99417 29798 ft 444 kts 160°
2026-05-05 19:01 49.68457 6.00908 30078 ft 443 kts 160°
2026-05-05 19:01 49.65524 6.02402 30415 ft 442 kts 160°
2026-05-05 19:01 49.62623 6.03879 30779 ft 439 kts 160°
2026-05-05 19:01 49.59757 6.05336 31106 ft 437 kts 160°
2026-05-05 19:02 49.56870 6.06803 31386 ft 436 kts 160°
2026-05-05 19:02 49.53990 6.08265 31653 ft 436 kts 160°
2026-05-05 19:02 49.51116 6.09720 31946 ft 435 kts 160°
2026-05-05 19:02 49.48250 6.11227 32226 ft 433 kts 156°
2026-05-05 19:03 49.45672 6.13578 32325 ft 433 kts 139°
2026-05-05 19:03 49.43447 6.16649 32709 ft 429 kts 139°
2026-05-05 19:03 49.41946 6.18615 32933 ft 427 kts 140°
2026-05-05 19:03 49.38856 6.22468 33173 ft 429 kts 141°
2026-05-05 19:04 49.34956 6.27217 33450 ft 430 kts 141°
2026-05-05 19:04 49.32616 6.30068 33718 ft 428 kts 141°
2026-05-05 19:04 49.30290 6.32912 33939 ft 427 kts 141°
2026-05-05 19:05 49.27966 6.35760 34062 ft 428 kts 141°
2026-05-05 19:05 49.25642 6.38613 34156 ft 430 kts 141°
2026-05-05 19:05 49.23302 6.41485 34263 ft 431 kts 142°
2026-05-05 19:05 49.20958 6.44360 34413 ft 431 kts 142°
2026-05-05 19:06 49.18615 6.47229 34546 ft 432 kts 142°
2026-05-05 19:06 49.16261 6.50109 34633 ft 433 kts 142°
2026-05-05 19:06 49.13908 6.52983 34742 ft 434 kts 142°
2026-05-05 19:06 49.11551 6.55859 34816 ft 435 kts 142°
2026-05-05 19:07 49.06813 6.61629 34825 ft 435 kts 142°
2026-05-05 19:07 49.02113 6.67341 34822 ft 434 kts 143°
2026-05-05 19:08 48.97218 6.72684 34806 ft 432 kts 154°
2026-05-05 19:08 48.91712 6.76378 34820 ft 434 kts 157°
2026-05-05 19:09 48.86193 6.80075 34830 ft 433 kts 157°
2026-05-05 19:09 48.80692 6.83809 34830 ft 433 kts 157°
2026-05-05 19:10 48.75191 6.87548 34825 ft 433 kts 157°
2026-05-05 19:10 48.69702 6.91271 34836 ft 432 kts 157°
2026-05-05 19:11 48.64221 6.94978 34834 ft 432 kts 157°
2026-05-05 19:11 48.58731 6.98681 34837 ft 432 kts 158°
2026-05-05 19:12 48.53247 7.02370 34839 ft 432 kts 158°
2026-05-05 19:12 48.47749 7.06060 34840 ft 432 kts 158°
2026-05-05 19:13 48.42288 7.09717 34845 ft 433 kts 158°
2026-05-05 19:13 48.36759 7.13410 34853 ft 435 kts 158°
2026-05-05 19:14 48.31204 7.17112 34847 ft 435 kts 158°
2026-05-05 19:14 48.25673 7.20790 34855 ft 435 kts 158°
2026-05-05 19:15 48.20139 7.24461 34846 ft 435 kts 158°
2026-05-05 19:15 48.14582 7.28138 34867 ft 437 kts 158°
2026-05-05 19:16 48.09027 7.31804 34854 ft 441 kts 158°
2026-05-05 19:16 48.03416 7.35500 34863 ft 442 kts 158°
2026-05-05 19:17 47.97749 7.39224 34856 ft 443 kts 159°
2026-05-05 19:17 47.92122 7.42913 34857 ft 441 kts 159°
2026-05-05 19:18 47.86531 7.46571 34856 ft 437 kts 159°
2026-05-05 19:18 47.80965 7.50203 34880 ft 436 kts 159°
2026-05-05 19:19 47.75525 7.54179 34860 ft 439 kts 148°
2026-05-05 19:19 47.71039 7.60311 34863 ft 447 kts 130°
2026-05-05 19:20 47.67392 7.67791 34867 ft 449 kts 129°
2026-05-05 19:20 47.63712 7.75290 34885 ft 450 kts 130°
2026-05-05 19:21 47.59989 7.82778 34883 ft 452 kts 130°
2026-05-05 19:21 47.56240 7.90271 34883 ft 453 kts 130°
2026-05-05 19:22 47.52491 7.97742 34874 ft 451 kts 130°
2026-05-05 19:22 47.48761 8.05160 34886 ft 449 kts 131°
2026-05-05 19:23 47.45025 8.12568 34873 ft 449 kts 131°
2026-05-05 19:23 47.41290 8.19955 34890 ft 449 kts 131°
2026-05-05 19:24 47.37545 8.27343 34896 ft 450 kts 131°
2026-05-05 19:24 47.33777 8.34757 34895 ft 452 kts 131°
2026-05-05 19:25 47.30016 8.42140 34890 ft 454 kts 131°
2026-05-05 19:25 47.25675 8.48688 34814 ft 440 kts 157°
2026-05-05 19:26 47.22913 8.50389 34929 ft 430 kts 169°
2026-05-05 19:26 47.19964 8.51038 34897 ft 423 kts 181°
2026-05-05 19:26 47.17039 8.51307 35020 ft 423 kts 179°
2026-05-05 19:26 47.14087 8.51689 34932 ft 426 kts 178°
2026-05-05 19:27 47.08178 8.52571 34948 ft 429 kts 178°
2026-05-05 19:27 47.02325 8.53433 34929 ft 417 kts 179°
2026-05-05 19:28 46.96569 8.54263 34914 ft 414 kts 179°
2026-05-05 19:28 46.93688 8.54676 34525 ft 417 kts 179°
2026-05-05 19:28 46.90814 8.55089 34268 ft 409 kts 179°
2026-05-05 19:29 46.87994 8.55497 33606 ft 408 kts 180°
2026-05-05 19:29 46.85212 8.55899 33450 ft 395 kts 180°
2026-05-05 19:29 46.82459 8.56295 32655 ft 396 kts 180°
2026-05-05 19:29 46.79774 8.56684 32293 ft 384 kts 180°
2026-05-05 19:30 46.77125 8.57064 31737 ft 378 kts 180°
2026-05-05 19:30 46.74538 8.57431 31194 ft 380 kts 180°
2026-05-05 19:30 46.71874 8.57808 30697 ft 379 kts 180°
2026-05-05 19:30 46.69283 8.58176 30181 ft 378 kts 180°
2026-05-05 19:31 46.66680 8.58548 29616 ft 375 kts 180°
2026-05-05 19:31 46.64091 8.58918 29011 ft 372 kts 180°
2026-05-05 19:31 46.61533 8.59283 28420 ft 368 kts 180°
2026-05-05 19:31 46.59007 8.59643 27859 ft 362 kts 180°
2026-05-05 19:32 46.56514 8.59994 27310 ft 357 kts 180°
2026-05-05 19:32 46.54056 8.60338 26756 ft 353 kts 180°
2026-05-05 19:32 46.51632 8.60677 26221 ft 349 kts 180°
2026-05-05 19:32 46.49218 8.61015 25688 ft 346 kts 180°
2026-05-05 19:33 46.46836 8.61344 25191 ft 342 kts 181°
2026-05-05 19:33 46.44486 8.61244 24569 ft 336 kts 193°
2026-05-05 19:33 46.42254 8.60475 24237 ft 327 kts 200°
2026-05-05 19:33 46.40114 8.59349 23597 ft 329 kts 207°
2026-05-05 19:34 46.38134 8.57722 23171 ft 325 kts 215°
2026-05-05 19:34 46.36246 8.55859 22563 ft 330 kts 215°
2026-05-05 19:34 46.34347 8.54002 21978 ft 327 kts 214°
2026-05-05 19:35 46.30570 8.50352 21095 ft 322 kts 214°
2026-05-05 19:35 46.28639 8.48683 21047 ft 327 kts 205°
2026-05-05 19:35 46.26454 8.47774 21070 ft 324 kts 191°
2026-05-05 19:35 46.24192 8.47569 20967 ft 332 kts 179°
2026-05-05 19:36 46.21927 8.47969 21126 ft 328 kts 177°
2026-05-05 19:36 46.19630 8.48338 20984 ft 333 kts 178°
2026-05-05 19:36 46.17340 8.48677 21032 ft 330 kts 178°
2026-05-05 19:36 46.15070 8.49006 20988 ft 333 kts 178°
2026-05-05 19:37 46.12734 8.49346 21004 ft 330 kts 178°
2026-05-05 19:37 46.10542 8.49852 20733 ft 326 kts 169°
2026-05-05 19:37 46.08377 8.50949 20151 ft 327 kts 163°
2026-05-05 19:37 46.06260 8.52140 19386 ft 329 kts 163°
2026-05-05 19:38 46.04112 8.53312 18738 ft 330 kts 164°
2026-05-05 19:38 46.01970 8.54468 18195 ft 327 kts 164°
2026-05-05 19:38 45.99818 8.55623 18160 ft 331 kts 164°
2026-05-05 19:38 45.97652 8.56785 17955 ft 331 kts 163°
2026-05-05 19:39 45.95529 8.57930 17680 ft 323 kts 163°
2026-05-05 19:39 45.93437 8.59053 17109 ft 319 kts 164°
2026-05-05 19:39 45.91354 8.60167 16406 ft 320 kts 165°
2026-05-05 19:39 45.89197 8.60762 15597 ft 316 kts 186°
2026-05-05 19:40 45.87066 8.60262 15160 ft 305 kts 195°
2026-05-05 19:40 45.85006 8.59628 14623 ft 302 kts 194°
2026-05-05 19:40 45.82939 8.59019 13979 ft 304 kts 194°
2026-05-05 19:40 45.80867 8.58417 13349 ft 303 kts 193°
2026-05-05 19:41 45.78808 8.57823 12779 ft 300 kts 193°
2026-05-05 19:41 45.76790 8.57242 12449 ft 289 kts 193°
2026-05-05 19:41 45.74862 8.56701 12172 ft 278 kts 191°
2026-05-05 19:41 45.72907 8.56731 11457 ft 286 kts 173°
2026-05-05 19:42 45.70963 8.57207 11065 ft 280 kts 173°
2026-05-05 19:42 45.69041 8.57606 10510 ft 280 kts 174°
2026-05-05 19:42 45.67111 8.57980 10005 ft 279 kts 174°
2026-05-05 19:42 45.65195 8.58345 9539 ft 276 kts 174°
2026-05-05 19:43 45.63301 8.58705 9012 ft 274 kts 174°
2026-05-05 19:43 45.61414 8.59064 8501 ft 273 kts 174°
2026-05-05 19:43 45.59559 8.59416 8230 ft 262 kts 173°
2026-05-05 19:43 45.57767 8.59760 7819 ft 259 kts 173°
2026-05-05 19:44 45.55984 8.60216 7288 ft 261 kts 170°
2026-05-05 19:44 45.54215 8.60727 7056 ft 260 kts 169°
2026-05-05 19:44 45.52436 8.61238 7076 ft 261 kts 170°
2026-05-05 19:44 45.50662 8.61738 6993 ft 259 kts 170°
2026-05-05 19:45 45.48901 8.62230 7007 ft 257 kts 170°
2026-05-05 19:45 45.47147 8.62717 6988 ft 254 kts 170°
2026-05-05 19:45 45.45431 8.63193 6996 ft 249 kts 170°
2026-05-05 19:45 45.43738 8.63661 6987 ft 247 kts 170°
2026-05-05 19:46 45.42056 8.64126 6990 ft 245 kts 170°
2026-05-05 19:46 45.40380 8.64588 6996 ft 245 kts 170°
2026-05-05 19:46 45.38696 8.65052 6988 ft 247 kts 170°
2026-05-05 19:46 45.37011 8.65517 6992 ft 247 kts 170°
2026-05-05 19:47 45.35328 8.65980 6990 ft 246 kts 170°
2026-05-05 19:47 45.33650 8.66443 6992 ft 243 kts 170°
2026-05-05 19:47 45.32035 8.66889 6975 ft 235 kts 170°
2026-05-05 19:47 45.30451 8.67327 6980 ft 230 kts 171°
2026-05-05 19:48 45.28876 8.67760 6998 ft 231 kts 170°
2026-05-05 19:48 45.27303 8.68193 7026 ft 230 kts 170°
2026-05-05 19:48 45.25728 8.68625 6999 ft 229 kts 170°
2026-05-05 19:48 45.24684 8.68912 7020 ft 232 kts 170°
2026-05-05 19:49 45.23075 8.69353 6985 ft 237 kts 170°
2026-05-05 19:49 45.21465 8.69795 6999 ft 235 kts 170°
2026-05-05 19:49 45.19856 8.70236 6978 ft 235 kts 170°
2026-05-05 19:49 45.18248 8.70677 6976 ft 234 kts 170°
2026-05-05 19:50 45.16645 8.71118 6962 ft 235 kts 170°
2026-05-05 19:50 45.15045 8.71557 6975 ft 234 kts 170°
2026-05-05 19:50 45.13452 8.71994 6962 ft 232 kts 170°
2026-05-05 19:50 45.11877 8.72427 6715 ft 229 kts 170°
2026-05-05 19:51 45.10370 8.73162 6212 ft 234 kts 150°
2026-05-05 19:51 45.09192 8.74755 5761 ft 236 kts 124°
2026-05-05 19:51 45.08605 8.76911 5358 ft 238 kts 100°
2026-05-05 19:51 45.08717 8.79238 5006 ft 241 kts 73°
2026-05-05 19:52 45.09549 8.81316 4995 ft 248 kts 49°
2026-05-05 19:52 45.10923 8.82764 4963 ft 247 kts 24°
2026-05-05 19:52 45.12558 8.83492 5001 ft 248 kts 14°
2026-05-05 19:52 45.14245 8.84091 4966 ft 248 kts 13°
2026-05-05 19:53 45.15916 8.84671 4970 ft 247 kts 13°
2026-05-05 19:53 45.17590 8.85232 4966 ft 246 kts
2026-05-05 19:53 45.19289 8.85241 4962 ft 244 kts 347°
2026-05-05 19:53 45.20890 8.84482 4988 ft 241 kts 341°
2026-05-05 19:54 45.22509 8.84143 4967 ft 230 kts 358°
2026-05-05 19:54 45.24090 8.83880 4931 ft 229 kts 347°
2026-05-05 19:54 45.25639 8.83492 5010 ft 226 kts 350°
2026-05-05 19:54 45.27189 8.83133 4986 ft 224 kts 349°
2026-05-05 19:55 45.28705 8.82776 4886 ft 220 kts 349°
2026-05-05 19:55 45.30212 8.82417 4538 ft 218 kts 349°
2026-05-05 19:55 45.31712 8.82043 4120 ft 219 kts 348°
2026-05-05 19:55 45.33205 8.81639 4021 ft 218 kts 348°
2026-05-05 19:56 45.34698 8.81225 3992 ft 219 kts 348°
2026-05-05 19:56 45.36185 8.80810 4002 ft 217 kts 348°
2026-05-05 19:56 45.37672 8.80390 4006 ft 218 kts 348°
2026-05-05 19:56 45.39155 8.79946 4000 ft 218 kts 348°
2026-05-05 19:57 45.40642 8.79515 3986 ft 216 kts 348°
2026-05-05 19:57 45.42072 8.79116 3972 ft 201 kts 349°
2026-05-05 19:57 45.43393 8.78753 4010 ft 188 kts 349°
2026-05-05 19:57 45.44696 8.78396 3996 ft 190 kts 349°
2026-05-05 19:58 45.45976 8.78048 3973 ft 185 kts 349°
2026-05-05 19:58 45.47254 8.77712 3614 ft 188 kts 349°
2026-05-05 19:58 45.48516 8.77370 3368 ft 185 kts 349°
2026-05-05 19:58 45.49759 8.77027 3165 ft 181 kts 349°
2026-05-05 19:59 45.50998 8.76683 2905 ft 181 kts 350°
2026-05-05 19:59 45.52234 8.76340 2645 ft 181 kts 350°
2026-05-05 19:59 45.53471 8.75998 2414 ft 181 kts 351°
2026-05-05 19:59 45.54689 8.75663 2157 ft 175 kts 351°
2026-05-05 20:00 45.55867 8.75336 1890 ft 170 kts 350°
2026-05-05 20:00 45.57001 8.75024 1687 ft 164 kts 351°
2026-05-05 20:00 45.58117 8.74713 1445 ft 162 kts 349°
2026-05-05 20:00 45.59211 8.74409 1224 ft 158 kts 349°
2026-05-05 20:01 45.60284 8.74115 1001 ft 156 kts 349°
2026-05-05 20:01 45.61336 8.73808 781 ft 152 kts 349°
2026-05-05 20:01 45.62344 8.73535 718 ft 131 kts 351°
2026-05-05 20:01 45.63022 8.73339 728 ft 68 kts 349°
2026-05-05 20:02 45.63385 8.73241 736 ft 64 kts 349°
2026-05-05 20:02 45.63786 8.72975 746 ft 58 kts 308°
2026-05-05 20:02 45.63898 8.72762 746 ft 10 kts 303°
2026-05-05 20:02 45.63903 8.72744 748 ft 0 kts 292°
2026-05-05 20:03 45.63904 8.72741 747 ft 1 kts 292°
2026-05-05 20:03 45.63910 8.72720 748 ft 3 kts 296°
2026-05-05 20:03 45.63926 8.72683 748 ft 5 kts 301°
2026-05-05 20:04 45.63922 8.72626 751 ft 7 kts 250°
2026-05-05 20:04 45.63874 8.72589 751 ft 10 kts 183°
2026-05-05 20:04 45.63783 8.72612 749 ft 16 kts 169°
2026-05-05 20:04 45.63654 8.72648 745 ft 21 kts 169°
2026-05-05 20:05 45.63492 8.72693 743 ft 26 kts 170°
2026-05-05 20:05 45.63404 8.72630 743 ft 10 kts 260°
2026-05-05 20:05 45.63394 8.72518 743 ft 13 kts 259°
2026-05-05 20:05 45.63375 8.72381 742 ft 16 kts 258°
2026-05-05 20:06 45.63351 8.72212 746 ft 19 kts 259°
2026-05-05 20:06 45.63330 8.72058 743 ft 1 kts 259°
2026-05-05 20:06 45.63329 8.72047 744 ft 0 kts 259°
2026-05-05 20:07 45.63327 8.72038 746 ft 3 kts 259°
2026-05-05 20:08 45.63309 8.71992 745 ft 8 kts 217°
2026-05-05 20:08 45.63241 8.71984 741 ft 13 kts 171°
2026-05-05 20:08 45.63136 8.72012 741 ft 18 kts 168°
2026-05-05 20:08 45.62999 8.72053 739 ft 22 kts 169°
2026-05-05 20:09 45.62829 8.72096 735 ft 27 kts 168°
2026-05-05 20:09 45.62723 8.72126 733 ft 14 kts 171°
2026-05-05 20:09 45.62719 8.72127 732 ft 0 kts 171°
2026-05-05 20:09 45.62705 8.72116 733 ft 4 kts 235°
2026-05-05 20:10 45.62680 8.72063 732 ft 9 kts 236°
2026-05-05 20:10 45.62678 8.72046 732 ft 3 kts 264°
2026-05-05 20:10 45.62673 8.71990 732 ft 8 kts 261°
2026-05-05 20:10 45.62661 8.71892 732 ft 12 kts 259°
2026-05-05 20:11 45.62644 8.71760 732 ft 14 kts 259°
2026-05-05 20:11 45.62625 8.71627 730 ft 13 kts 258°
2026-05-05 20:11 45.62619 8.71582 732 ft 0 kts 258°
2026-05-05 20:12 45.62619 8.71581 732 ft 1 kts 258°
2026-05-05 20:13 45.62616 8.71561 732 ft 4 kts 258°
2026-05-05 20:13 45.62602 8.71516 731 ft 5 kts 209°
2026-05-05 20:13 45.62563 8.71520 730 ft 7 kts 166°
2026-05-05 20:13 45.62542 8.71527 729 ft 3 kts 169°
2026-05-05 20:14 45.62535 8.71528 729 ft 1 kts 171°
2026-05-05 20:14 45.62530 8.71528 729 ft 1 kts 177°
2026-05-05 20:14 45.62527 8.71530 729 ft 0 kts 168°
2026-05-05 20:14 45.62525 8.71530 730 ft 0 kts 168°